User: anonymous   Login
Location: Unspecified
(0.0000°N, 0.0000°E)
Time: 23:49:20
(UTC+00:00)
Language:

STARLINK-30370 - Orbit

View from above orbital plane
View from above orbital plane
View from above satellite
View from above satellite

Ground track
Ground track

The orbit is defined by the following mean orbital elements,

1 57751U          26145.53700922 +.00000000 +00000-0 +64444-3 0 00009
2 57751  43.0000  82.7759 0001899 205.2612 154.8148 15.30094088    06
Epoch (UTC): 25 May 2026 12:53:17
Eccentricity: 0.0001899
inclination: 43.0000°
perigee height: 474 km
apogee height: 477 km
right ascension of ascending node: 82.7759°
argument of perigee: 205.2612°
revolutions per day: 15.30094088
mean anomaly at epoch: 154.8148°

The dashed part of the orbit path shows where the satellite is in the earth's shadow,  

DLR